YF9UAG-17 Weather Reports


time (UTC)temp
F
wind
direction
speed
knots
gust
knots
rain 1hr
in
rain 24hr
in
rain mn
in
humidity
%
barometer
mb
20260508184735 83 0 0.0 0.0 0.00 0.00 0.00 59 940.0
20260508183213 83 0 0.0 0.0 0.00 0.00 0.00 59 940.0
20260508181651 83 0 0.0 0.0 0.00 0.00 0.00 59 940.0
20260508180129 82 0 0.0 0.0 0.00 0.00 0.00 60 940.0
20260508174607 82 0 0.0 0.0 0.00 0.00 0.00 60 940.0
20260508173045 84 0 0.0 0.0 0.00 0.00 0.00 58 941.0
20260508165531 84 0 0.0 0.0 0.00 0.00 0.00 58 941.0
20260508164009 84 0 0.0 0.0 0.00 0.00 0.00 58 941.0
20260508162447 84 0 0.0 0.0 0.00 0.00 0.00 58 941.0
20260508160925 84 0 0.0 0.0 0.00 0.00 0.00 58 942.0
20260508155403 85 0 0.0 0.0 0.00 0.00 0.00 58 942.0
20260508153840 85 0 0.0 0.0 0.00 0.00 0.00 58 941.0
20260508152318 85 0 0.0 0.0 0.00 0.00 0.00 58 941.0
20260508150756 85 0 0.0 0.0 0.00 0.00 0.00 59 941.0
20260508145235 85 0 0.0 0.0 0.00 0.00 0.00 59 941.0
20260508143712 85 0 0.0 0.0 0.00 0.00 0.00 60 941.0
20260508142150 85 0 0.0 0.0 0.00 0.00 0.00 59 941.0
20260508140628 86 0 0.0 0.0 0.00 0.00 0.00 60 941.0
20260508135106 86 0 0.0 0.0 0.00 0.00 0.00 60 942.0
20260508133544 86 0 0.0 0.0 0.00 0.00 0.00 60 942.0
20260508132022 86 0 0.0 0.0 0.00 0.00 0.00 60 942.0
20260508130500 86 0 0.0 0.0 0.00 0.00 0.00 60 941.0
20260508124938 86 0 0.0 0.0 0.00 0.00 0.00 60 941.0
20260508123416 86 0 0.0 0.0 0.00 0.00 0.00 60 941.0
20260508121854 86 0 0.0 0.0 0.00 0.00 0.00 60 941.0
20260508120332 86 0 0.0 0.0 0.00 0.00 0.00 60 941.0
20260508114810 86 0 0.0 0.0 0.00 0.00 0.00 59 940.0
20260508113248 86 0 0.0 0.0 0.00 0.00 0.00 59 940.0
20260508111726 87 0 0.0 0.0 0.00 0.00 0.00 58 940.0
20260508110204 87 0 0.0 0.0 0.00 0.00 0.00 58 940.0
20260508104642 88 0 0.0 0.0 0.00 0.00 0.00 57 939.0
20260508103120 87 0 0.0 0.0 0.00 0.00 0.00 57 939.0
20260508102626 87 0 0.0 0.0 0.00 0.00 0.00 58 939.0
20260508101104 87 0 0.0 0.0 0.00 0.00 0.00 57 939.0
20260508095542 89 0 0.0 0.0 0.00 0.00 0.00 55 939.0
20260508094020 90 0 0.0 0.0 0.00 0.00 0.00 54 939.0
20260508092458 91 0 0.0 0.0 0.00 0.00 0.00 53 939.0
20260508090936 91 0 0.0 0.0 0.00 0.00 0.00 52 939.0
20260508085414 92 0 0.0 0.0 0.00 0.00 0.00 52 938.0
20260508083852 92 0 0.0 0.0 0.00 0.00 0.00 52 938.0
20260508082330 91 0 0.0 0.0 0.00 0.00 0.00 51 938.0
20260508080808 91 0 0.0 0.0 0.00 0.00 0.00 51 938.0
20260508075246 94 0 0.0 0.0 0.00 0.00 0.00 53 938.0
20260508073724 92 0 0.0 0.0 0.00 0.00 0.00 49 938.0
20260508072202 92 0 0.0 0.0 0.00 0.00 0.00 50 938.0
20260508070640 89 0 0.0 0.0 0.00 0.00 0.00 54 938.0
20260508065118 92 0 0.0 0.0 0.00 0.00 0.00 50 938.0
20260508063556 93 0 0.0 0.0 0.00 0.00 0.00 49 938.0
20260508062034 92 0 0.0 0.0 0.00 0.00 0.00 51 939.0
20260508060512 94 0 0.0 0.0 0.00 0.00 0.00 47 939.0
20260508054950 91 0 0.0 0.0 0.00 0.00 0.00 52 939.0
20260508053427 89 0 0.0 0.0 0.00 0.00 0.00 54 939.0
20260508051905 90 0 0.0 0.0 0.00 0.00 0.00 52 939.0
20260508050343 90 0 0.0 0.0 0.00 0.00 0.00 54 939.0
20260508044822 88 0 0.0 0.0 0.00 0.00 0.00 56 940.0
20260508043300 86 0 0.0 0.0 0.00 0.00 0.00 57 940.0
20260508041738 84 0 0.0 0.0 0.00 0.00 0.00 60 940.0
20260508040215 84 0 0.0 0.0 0.00 0.00 0.00 60 940.0
20260508034653 84 0 0.0 0.0 0.00 0.00 0.00 64 940.0
20260508033131 83 0 0.0 0.0 0.00 0.00 0.00 68 940.0
20260508031609 84 0 0.0 0.0 0.00 0.00 0.00 70 941.0
20260508030047 83 0 0.0 0.0 0.00 0.00 0.00 68 941.0
20260508024525 81 0 0.0 0.0 0.00 0.00 0.00 65 941.0
20260508023003 81 0 0.0 0.0 0.00 0.00 0.00 64 941.0
20260508021441 82 0 0.0 0.0 0.00 0.00 0.00 69 941.0
20260508015919 81 0 0.0 0.0 0.00 0.00 0.00 63 941.0
20260508014357 81 0 0.0 0.0 0.00 0.00 0.00 62 941.0
20260508012836 81 0 0.0 0.0 0.00 0.00 0.00 60 941.0
20260508011313 81 0 0.0 0.0 0.00 0.00 0.00 57 941.0
20260508005751 81 0 0.0 0.0 0.00 0.00 0.00 56 941.0
20260508004229 80 0 0.0 0.0 0.00 0.00 0.00 58 941.0
20260508002707 80 0 0.0 0.0 0.00 0.00 0.00 57 941.0
20260508001145 80 0 0.0 0.0 0.00 0.00 0.00 57 941.0
20260507235623 80 0 0.0 0.0 0.00 0.00 0.00 58 941.0
20260507234101 80 0 0.0 0.0 0.00 0.00 0.00 59 941.0
20260507232539 80 0 0.0 0.0 0.00 0.00 0.00 59 941.0
20260507231017 79 0 0.0 0.0 0.00 0.00 0.00 61 941.0
20260507225455 79 0 0.0 0.0 0.00 0.00 0.00 61 941.0
20260507223933 78 0 0.0 0.0 0.00 0.00 0.00 62 941.0
20260507222411 78 0 0.0 0.0 0.00 0.00 0.00 59 941.0
20260507220849 78 0 0.0 0.0 0.00 0.00 0.00 57 941.0
20260507215327 80 0 0.0 0.0 0.00 0.00 0.00 59 940.0
20260507213805 80 0 0.0 0.0 0.00 0.00 0.00 60 940.0
20260507212243 80 0 0.0 0.0 0.00 0.00 0.00 62 940.0
20260507210721 80 0 0.0 0.0 0.00 0.00 0.00 62 940.0
20260507205159 80 0 0.0 0.0 0.00 0.00 0.00 62 940.0
20260507203637 81 0 0.0 0.0 0.00 0.00 0.00 62 940.0
20260507202115 81 0 0.0 0.0 0.00 0.00 0.00 62 940.0
20260507200553 81 0 0.0 0.0 0.00 0.00 0.00 62 940.0
20260507195031 81 0 0.0 0.0 0.00 0.00 0.00 63 940.0
20260507193509 81 0 0.0 0.0 0.00 0.00 0.00 63 941.0
20260507191947 82 0 0.0 0.0 0.00 0.00 0.00 63 941.0
20260507190425 82 0 0.0 0.0 0.00 0.00 0.00 63 941.0